Location: Barrio Las Umbrías
(40.4173°N, 4.8685°W)
Time: 13:12:19
(UTC+00:00)

H-2A R/B - Pass Details

Date: 17 August 2022
Orbit: 575 x 653 km, 98.5° (Epoch: 28 September)

Event Time Altitude Azimuth Distance (km) Brightness Sun altitude
Rises 21:20:03 0° 6° (N) 2,899 6.0 -21.6°
Reaches altitude 10° 21:22:20 10° 1° (N) 1,976 5.2 -21.9°
Maximum altitude 21:26:25 45° 288° (WNW) 825 3.0 -22.5°
Enters shadow 21:30:03 12° 218° (SW) 1,787 4.3 -23.0°
